Overview Statistics Trail Chart Weather Telemetry Raw packets
 

This is the latest recevied weather packets stored in our database for station/object PA3DZX-13. If no packets are shown the sender has not sent any weather packets the latest 10 day(s).

<< 8 9 10 11 12 13 14 >>
Time Temp. Humidity Pressure Rain* Wind** Luminosity Snow
1788402247 15.56° C 86% 1016.8 hPa 0 mm - - -
1788401347 15.56° C 83% 1017 hPa 0 mm - - -
1788400447 15.56° C 80% 1017.4 hPa 0 mm - - -
1788399545 16.67° C 79% 1017.3 hPa 0 mm - - -
1788398645 16.67° C 79% 1017.5 hPa 0 mm - - -
1788397745 16.67° C 74% 1017.8 hPa 0 mm - - -
1788396845 16.67° C 74% 1017.7 hPa 0 mm - - -
1788395944 16.67° C 73% 1017.8 hPa 0 mm - - -
1788395045 16.67° C 72% 1017.8 hPa 0 mm - - -
1788394143 16.67° C 75% 1017.9 hPa 0 mm - - -
1788393243 16.67° C 76% 1018 hPa 0 mm - - -
1788392343 16.67° C 75% 1018.1 hPa 0 mm - - -
1788391443 15.56° C 82% 1018.2 hPa 0 mm - - -
1788390543 15.56° C 83% 1018.3 hPa 0 mm - - -
1788389644 15.56° C 83% 1018.7 hPa 0 mm - - -
1788388742 15.56° C 86% 1018.8 hPa 0 mm - - -
1788387843 15.56° C 87% 1018.9 hPa 0 mm - - -
1788386942 15.56° C 86% 1019 hPa 0.76 mm - - -
1788386042 15.56° C 85% 1019 hPa 0.25 mm - - -
1788385141 15.56° C 82% 1019.1 hPa 0 mm - - -
1788384241 15.56° C 82% 1019 hPa 0 mm - - -
1788383341 15.56° C 82% 1019.2 hPa 0 mm - - -
1788382439 15.56° C 82% 1019.2 hPa 0 mm - - -
1788381539 15.56° C 83% 1019.3 hPa 0 mm - - -
1788380638 15.56° C 83% 1019.3 hPa 0 mm - - -

* Rain latest hour (hover to see other rain measurements)
** Current wind speed in m/s (hover to see current wind gust speed)